This is the latest recevied weather packets stored in our database for station/object N3AVN. If no packets are shown the sender has not sent any weather packets the latest 1 day(s).
| Time | Temp. | Humidity | Pressure | Rain* | Wind** | Luminosity | Snow |
|---|---|---|---|---|---|---|---|
| 1778014408 | 25° C | 49% | 1005.2 hPa | 0 mm | 2.24 m/s, 331° | 159 W/m² | - |
| 1778014104 | 25° C | 49% | 1005.5 hPa | 0 mm | 2.68 m/s, 218° | 250 W/m² | - |
| 1778013802 | 25° C | 49% | 1005.4 hPa | 0 mm | 3.13 m/s, 94° | 234 W/m² | - |
| 1778013499 | 25.56° C | 48% | 1005.2 hPa | 0 mm | 2.24 m/s, 220° | 264 W/m² | - |
| 1778013196 | 25.56° C | 47% | 1005.2 hPa | 0 mm | 2.68 m/s, 294° | 336 W/m² | - |
| 1778012892 | 25.56° C | 47% | 1005.3 hPa | 0 mm | 0.89 m/s, 36° | 306 W/m² | - |
| 1778012588 | 26.11° C | 47% | 1005 hPa | 0 mm | 3.58 m/s, 235° | 354 W/m² | - |
| 1778012285 | 26.67° C | 46% | 1005.1 hPa | 0 mm | 5.81 m/s, 127° | 302 W/m² | - |
| 1778011982 | 26.11° C | 48% | 1005 hPa | 0 mm | 1.34 m/s, 194° | 387 W/m² | - |
| 1778011681 | 26.11° C | 47% | 1005.5 hPa | 0 mm | 1.34 m/s, 193° | 396 W/m² | - |
| 1778011377 | 26.11° C | 47% | 1005.2 hPa | 0 mm | 1.79 m/s, 117° | 418 W/m² | - |
| 1778011072 | 26.67° C | 46% | 1004.9 hPa | 0 mm | 1.79 m/s, 234° | 415 W/m² | - |
| 1778010770 | 27.22° C | 44% | 1005.3 hPa | 0 mm | 3.58 m/s, 219° | 426 W/m² | - |
| 1778010467 | 26.67° C | 45% | 1005.1 hPa | 0 mm | 1.34 m/s, 75° | 504 W/m² | - |
| 1778010164 | 26.67° C | 45% | 1005.2 hPa | 0 mm | 1.79 m/s, 239° | 475 W/m² | - |
| 1778009859 | 26.67° C | 45% | 1004.8 hPa | 0 mm | 1.34 m/s, 57° | 443 W/m² | - |
| 1778009557 | 26.67° C | 44% | 1004.9 hPa | 0 mm | 3.13 m/s, 0° | 472 W/m² | - |
| 1778009256 | 26.67° C | 44% | 1005.1 hPa | 0 mm | 4.02 m/s, 124° | 454 W/m² | - |
| 1778008953 | 27.22° C | 44% | 1005.2 hPa | 0 mm | 3.13 m/s, 46° | 559 W/m² | - |
| 1778008651 | 26.67° C | 44% | 1005 hPa | 0 mm | 1.34 m/s, 52° | 467 W/m² | - |
| 1778008349 | 26.67° C | 46% | 1005.1 hPa | 0 mm | 1.34 m/s, 68° | 608 W/m² | - |
| 1778008045 | 26.67° C | 45% | 1005.5 hPa | 0 mm | 2.24 m/s, 119° | 552 W/m² | - |
| 1778007745 | 27.22° C | 45% | 1005.5 hPa | 0 mm | 0.89 m/s, 112° | 579 W/m² | - |
| 1778007442 | 26.11° C | 46% | 1005.7 hPa | 0 mm | 3.58 m/s, 216° | 630 W/m² | - |
| 1778007138 | 26.67° C | 46% | 1005.6 hPa | 0 mm | 0.89 m/s, 12° | 575 W/m² | - |
* Rain latest hour (hover to see other rain measurements)
** Current wind speed in m/s (hover to see current wind gust speed)